Date String (YYYY-MM-DD hh:mm:ss) UTC,Instrument flags,Ambient pressure (hPa),Sample flow (lpm),Bypass flow (lpm),Sample temperature (°C),Ambient temperature (°C),ASC tube jacket temperature (°C),LED temperature (°C),Box temperature (°C),Sample RH (%),Mass concentration (μg/m³),Mass concentration (μg/m³)
DateTimeUTC,F1_M11,P_M11,Q1_M11,Q2_M11,T1_M11,T2_M11,T3_M11,T4_M11,T5_M11,U1_M11,X0_M11,X2_M11
2021-08-11 05:00:00,FlowAlarm;OPCInstrumentWarning,0828.1,5.00,0.00,29.3,28.6,00.0,38.3,31.3,14.7,0040.38,0027.50
2021-08-11 05:01:00,FlowAlarm;OPCInstrumentWarning,0828.0,5.01,0.00,29.4,28.7,00.0,38.3,31.4,14.9,0040.43,0027.48
2021-08-11 05:02:00,FlowAlarm;OPCInstrumentWarning,0828.0,5.00,0.00,29.4,28.5,00.0,38.4,31.4,15.1,0039.69,0027.43
2021-08-11 05:03:00,FlowAlarm;OPCInstrumentWarning,0828.0,4.99,0.00,29.3,26.8,00.0,38.4,30.9,15.3,0039.50,0027.42
2021-08-11 05:04:00,FlowAlarm;OPCInstrumentWarning,0828.0,5.00,0.00,29.2,26.4,00.0,38.4,30.8,15.3,0039.41,0027.36
2021-08-11 05:05:00,FlowAlarm;OPCInstrumentWarning,0828.0,5.01,0.00,29.1,26.6,00.0,38.3,30.8,15.3,0039.89,0027.35
2021-08-11 05:06:00,FlowAlarm;OPCInstrumentWarning,0828.0,5.00,0.00,29.1,26.9,00.0,38.3,30.9,15.3,0039.28,0027.40
2021-08-11 05:07:00,FlowAlarm;OPCInstrumentWarning,0828.0,5.00,0.00,29.1,27.3,00.0,38.3,31.0,15.3,0039.06,0027.44
2021-08-11 05:08:00,FlowAlarm;OPCInstrumentWarning,0828.0,5.00,0.00,29.1,27.6,00.0,38.3,31.0,15.2,0039.31,0027.51
2021-08-11 05:09:00,FlowAlarm;OPCInstrumentWarning,0828.0,5.00,0.00,29.1,27.8,00.0,38.3,31.1,15.2,0040.01,0027.51
2021-08-11 05:10:00,FlowAlarm;OPCInstrumentWarning,0828.0,4.99,0.00,29.2,28.0,00.0,38.3,31.1,15.1,0039.68,0027.52
2021-08-11 05:11:00,FlowAlarm;OPCInstrumentWarning,0828.0,5.02,0.00,29.2,28.2,00.0,38.3,31.2,15.2,0037.79,0027.49
2021-08-11 05:12:00,FlowAlarm;OPCInstrumentWarning,0828.0,4.99,0.00,29.3,28.4,00.0,38.3,31.3,15.2,0037.70,0027.48
2021-08-11 05:13:00,FlowAlarm;OPCInstrumentWarning,0828.0,5.01,0.00,29.3,28.5,00.0,38.4,31.3,15.2,0037.88,0027.45
2021-08-11 05:14:00,FlowAlarm;OPCInstrumentWarning,0828.0,4.99,0.00,29.4,28.6,00.0,38.4,31.4,15.2,0038.29,0027.46
2021-08-11 05:15:00,FlowAlarm;OPCInstrumentWarning,0828.0,4.99,0.00,29.4,28.7,00.0,38.4,31.4,15.1,0038.48,0027.51
2021-08-11 05:16:00,FlowAlarm;OPCInstrumentWarning,0828.0,5.00,0.00,29.5,28.3,00.0,38.4,31.3,15.0,0037.81,0027.52
2021-08-11 05:17:00,FlowAlarm;OPCInstrumentWarning,0828.0,5.00,0.00,29.3,26.3,00.0,38.4,30.8,15.0,0037.70,0027.49
2021-08-11 05:18:00,FlowAlarm;OPCInstrumentWarning,0828.0,5.02,0.00,29.2,25.4,00.0,38.4,30.5,15.2,0037.61,0027.44
2021-08-11 05:19:00,FlowAlarm;OPCInstrumentWarning,0828.0,5.00,0.00,29.1,25.7,00.0,38.3,30.6,15.3,0037.94,0027.40
2021-08-11 05:20:00,FlowAlarm;OPCInstrumentWarning,0828.0,4.99,0.00,29.0,26.1,00.0,38.3,30.7,15.4,0037.47,0027.36
2021-08-11 05:21:00,FlowAlarm;OPCInstrumentWarning,0828.0,5.01,0.00,28.9,26.5,00.0,38.2,30.8,15.4,0037.29,0027.30
2021-08-11 05:22:00,FlowAlarm;OPCInstrumentWarning,0828.0,5.00,0.00,28.9,26.9,00.0,38.2,30.8,15.4,0037.15,0027.23
2021-08-11 05:23:00,FlowAlarm;OPCInstrumentWarning,0828.0,5.00,0.00,28.9,27.3,00.0,38.2,30.9,15.4,0037.25,0027.15
2021-08-11 05:24:00,FlowAlarm;OPCInstrumentWarning,0828.0,5.00,0.00,29.0,27.5,00.0,38.2,30.9,15.4,0037.65,0027.14
2021-08-11 05:25:00,FlowAlarm;OPCInstrumentWarning,0827.9,4.99,0.00,29.0,27.8,00.0,38.2,31.0,15.3,0037.28,0027.08
2021-08-11 05:26:00,FlowAlarm;OPCInstrumentWarning,0828.0,4.99,0.00,29.1,28.0,00.0,38.2,31.1,15.2,0037.04,0026.99
2021-08-11 05:27:00,FlowAlarm;OPCInstrumentWarning,0828.0,5.01,0.00,29.1,28.1,00.0,38.2,31.1,15.2,0037.01,0026.93
2021-08-11 05:28:00,FlowAlarm;OPCInstrumentWarning,0828.0,5.02,0.00,29.2,28.3,00.0,38.3,31.2,15.1,0037.02,0026.86
2021-08-11 05:29:00,FlowAlarm;OPCInstrumentWarning,0828.0,4.98,0.00,29.2,28.4,00.0,38.3,31.2,15.1,0036.93,0026.78
2021-08-11 05:30:00,FlowAlarm;OPCInstrumentWarning,0828.0,5.01,0.00,29.3,28.5,00.0,38.3,31.3,15.1,0036.40,0026.75
2021-08-11 05:31:00,FlowAlarm;OPCInstrumentWarning,0828.0,5.00,0.00,29.3,28.5,00.0,38.3,31.3,15.1,0036.34,0026.71
2021-08-11 05:32:00,FlowAlarm;OPCInstrumentWarning,0828.0,5.01,0.00,29.4,28.6,00.0,38.4,31.4,15.0,0036.88,0026.67
2021-08-11 05:33:00,FlowAlarm;OPCInstrumentWarning,0828.0,4.98,0.00,29.4,28.7,00.0,38.4,31.4,15.0,0036.84,0026.65
2021-08-11 05:34:00,FlowAlarm;OPCInstrumentWarning,0828.0,5.01,0.00,29.5,28.7,00.0,38.4,31.5,15.1,0036.66,0026.69
2021-08-11 05:35:00,FlowAlarm;OPCInstrumentWarning,0828.1,5.00,0.00,29.5,27.8,00.0,38.4,31.2,15.1,0035.98,0026.64
2021-08-11 05:36:00,FlowAlarm;OPCInstrumentWarning,0828.0,4.99,0.00,29.3,25.8,00.0,38.4,30.7,15.1,0036.21,0026.65
2021-08-11 05:37:00,FlowAlarm;OPCInstrumentWarning,0828.0,5.01,0.00,29.1,25.4,00.0,38.4,30.5,15.2,0036.41,0026.71
2021-08-11 05:38:00,FlowAlarm;OPCInstrumentWarning,0828.0,5.00,0.00,29.0,25.7,00.0,38.3,30.6,15.2,0036.32,0026.69
2021-08-11 05:39:00,FlowAlarm;OPCInstrumentWarning,0828.0,5.01,0.00,28.9,26.2,00.0,38.3,30.7,15.3,0036.30,0026.72
2021-08-11 05:40:00,FlowAlarm;OPCInstrumentWarning,0828.0,4.99,0.00,28.9,26.6,00.0,38.2,30.8,15.3,0036.59,0026.74
2021-08-11 05:41:00,FlowAlarm;OPCInstrumentWarning,0828.0,5.00,0.00,28.9,27.0,00.0,38.2,30.8,15.3,0036.81,0026.76
2021-08-11 05:42:00,FlowAlarm;OPCInstrumentWarning,0828.0,5.00,0.00,29.0,27.3,00.0,38.2,30.9,15.4,0036.62,0026.77
2021-08-11 05:43:00,FlowAlarm;OPCInstrumentWarning,0828.0,4.99,0.00,29.0,27.6,00.0,38.2,30.9,15.4,0036.14,0026.79
2021-08-11 05:44:00,FlowAlarm;OPCInstrumentWarning,0828.0,5.01,0.00,29.0,27.8,00.0,38.2,31.0,15.3,0036.41,0026.86
2021-08-11 05:45:00,FlowAlarm;OPCInstrumentWarning,0828.0,5.01,0.00,29.1,28.0,00.0,38.2,31.1,15.3,0036.52,0026.91
2021-08-11 05:46:00,FlowAlarm;OPCInstrumentWarning,0828.0,4.98,0.00,29.1,28.1,00.0,38.3,31.1,15.1,0036.65,0026.99
2021-08-11 05:47:00,FlowAlarm;OPCInstrumentWarning,0828.0,5.00,0.00,29.2,28.3,00.0,38.3,31.2,15.1,0036.86,0027.03
2021-08-11 05:48:00,FlowAlarm;OPCInstrumentWarning,0828.0,5.01,0.00,29.2,28.4,00.0,38.3,31.2,15.0,0038.33,0027.06
2021-08-11 05:49:00,FlowAlarm;OPCInstrumentWarning,0828.0,5.00,0.00,29.3,28.5,00.0,38.3,31.3,15.0,0038.83,0027.16
2021-08-11 05:50:00,FlowAlarm;OPCInstrumentWarning,0827.9,5.00,0.00,29.3,28.5,00.0,38.3,31.3,15.0,0039.14,0027.23
2021-08-11 05:51:00,FlowAlarm;OPCInstrumentWarning,0827.9,5.00,0.00,29.4,28.6,00.0,38.4,31.4,15.0,0038.93,0027.32
2021-08-11 05:52:00,FlowAlarm;OPCInstrumentWarning,0828.0,5.00,0.00,29.4,28.7,00.0,38.4,31.4,14.9,0038.85,0027.37
2021-08-11 05:53:00,FlowAlarm;OPCInstrumentWarning,0828.0,4.99,0.00,29.5,28.7,00.0,38.4,31.5,14.9,0038.92,0027.48
2021-08-11 05:54:00,FlowAlarm;OPCInstrumentWarning,0828.0,4.99,0.00,29.5,28.7,00.0,38.5,31.5,14.9,0039.04,0027.60
2021-08-11 05:55:00,FlowAlarm;OPCInstrumentWarning,0827.9,5.01,0.00,29.5,27.3,00.0,38.5,31.1,14.7,0039.61,0027.78
2021-08-11 05:56:00,FlowAlarm;OPCInstrumentWarning,0827.9,5.00,0.00,29.3,26.3,00.0,38.5,30.9,14.6,0040.23,0028.00
2021-08-11 05:57:00,FlowAlarm;OPCInstrumentWarning,0827.9,4.98,0.00,29.2,26.5,00.0,38.4,30.9,14.7,0040.56,0028.24
2021-08-11 05:58:00,FlowAlarm;OPCInstrumentWarning,0827.9,5.01,0.00,29.2,26.8,00.0,38.4,30.9,14.8,0040.25,0028.46
2021-08-11 05:59:00,FlowAlarm;OPCInstrumentWarning,0827.9,5.00,0.00,29.1,27.2,00.0,38.4,31.0,14.9,0039.24,0028.64
